Location: Haliburton Scout Reserve
(45.0900°N, 78.3200°W)
Time: 23:10:55
(UTC-04:00)

VELOX 1 - Visible Passes

Search period start: 16 June 2024 00:00
Search period end: 26 June 2024 00:00
Orbit: 603 x 617 km, 98.3° (Epoch: 16 June)

Date Brightness Start Highest point End Pass type
(mag) Time Alt. Az. Time Alt. Az. Time Alt. Az.
16 Jun ? 23:11:14 10° NW 23:12:34 11° WNW 23:13:55 10° WNW visible
17 Jun ? 21:47:20 10° N 21:51:34 70° WNW 21:55:47 10° SSW visible
18 Jun ? 22:01:39 10° N 22:05:45 49° WNW 22:09:50 10° SW visible
19 Jun ? 22:16:01 10° N 22:19:54 35° WNW 22:23:45 10° SW visible
20 Jun ? 22:30:27 10° N 22:33:59 26° WNW 22:37:31 10° WSW visible
21 Jun ? 22:45:00 10° NNW 22:48:04 20° WNW 22:51:06 10° WSW visible
22 Jun ? 22:59:43 10° NNW 23:02:04 15° WNW 23:04:26 10° W visible
23 Jun ? 21:36:37 10° NNE 21:40:53 87° ESE 21:45:08 10° SSW visible
23 Jun ? 23:14:57 10° NW 23:16:05 11° WNW 23:17:10 10° WNW visible
24 Jun ? 21:50:48 10° N 21:55:01 67° WNW 21:59:14 10° SSW visible
25 Jun ? 22:05:03 10° N 22:09:08 47° WNW 22:13:12 10° SW visible
